TimeEDT,TemperatureF,Dew PointF,Humidity,Sea Level PressureIn,VisibilityMPH,Wind Direction,Wind SpeedMPH,Gust SpeedMPH,PrecipitationIn,Events,Conditions,WindDirDegrees,DateUTC
12:53 AM,66.0,61.0,84,29.93,10.0,Calm,Calm,-,N/A,,Scattered Clouds,0,2013-07-01 04:53:00
1:53 AM,66.0,60.1,81,29.92,10.0,Calm,Calm,-,N/A,,Partly Cloudy,0,2013-07-01 05:53:00
2:53 AM,66.0,60.1,81,29.92,10.0,NW,3.5,-,N/A,,Mostly Cloudy,320,2013-07-01 06:53:00
3:44 AM,64.4,60.8,88,29.93,10.0,NNW,4.6,-,N/A,,Overcast,330,2013-07-01 07:44:00
3:53 AM,66.0,61.0,84,29.91,10.0,Calm,Calm,-,N/A,,Overcast,0,2013-07-01 07:53:00
4:37 AM,66.2,62.6,88,29.94,10.0,Calm,Calm,-,N/A,,Overcast,0,2013-07-01 08:37:00
4:53 AM,66.0,62.1,87,29.94,10.0,Calm,Calm,-,N/A,,Overcast,0,2013-07-01 08:53:00
5:44 AM,64.4,62.6,94,29.97,10.0,Calm,Calm,-,N/A,,Mostly Cloudy,0,2013-07-01 09:44:00
5:53 AM,64.9,62.1,90,29.96,10.0,NNW,3.5,-,N/A,,Mostly Cloudy,340,2013-07-01 09:53:00
6:53 AM,64.9,62.1,90,29.95,8.0,North,4.6,-,0.00,,Scattered Clouds,350,2013-07-01 10:53:00
7:32 AM,64.4,62.6,94,29.97,7.0,Calm,Calm,-,0.00,Rain,Light Rain,0,2013-07-01 11:32:00
7:41 AM,66.2,62.6,88,29.98,6.0,Calm,Calm,-,0.00,Rain,Light Rain,0,2013-07-01 11:41:00
7:53 AM,66.0,62.1,87,29.97,7.0,Calm,Calm,-,0.00,Rain,Light Rain,0,2013-07-01 11:53:00
8:53 AM,66.9,63.0,87,29.97,8.0,Calm,Calm,-,0.00,,Overcast,0,2013-07-01 12:53:00
9:03 AM,66.2,62.6,88,29.99,7.0,Calm,Calm,-,N/A,,Overcast,0,2013-07-01 13:03:00
9:12 AM,66.2,62.6,88,29.99,7.0,North,3.5,-,N/A,,Overcast,350,2013-07-01 13:12:00
9:31 AM,66.2,62.6,88,29.99,7.0,Variable,3.5,-,N/A,,Overcast,0,2013-07-01 13:31:00
9:53 AM,66.9,63.0,87,29.97,7.0,NE,3.5,-,0.00,Rain,Light Rain,50,2013-07-01 13:53:00
10:53 AM,66.0,64.0,93,29.98,4.0,North,3.5,-,0.02,Rain,Light Rain,360,2013-07-01 14:53:00
11:53 AM,66.9,64.9,93,29.99,4.0,Calm,Calm,-,0.04,Rain,Light Rain,0,2013-07-01 15:53:00
12:53 PM,68.0,64.9,90,29.98,6.0,Variable,3.5,-,0.02,Rain,Light Rain,0,2013-07-01 16:53:00
1:53 PM,66.9,64.0,90,29.97,3.0,Variable,4.6,-,0.02,Rain,Light Rain,0,2013-07-01 17:53:00
1:59 PM,66.2,64.4,94,29.99,2.0,North,3.5,-,0.00,Rain,Light Rain,350,2013-07-01 17:59:00
2:06 PM,66.2,64.4,94,29.99,0.8,North,4.6,-,0.07,Rain,Heavy Rain,350,2013-07-01 18:06:00
2:19 PM,66.2,64.4,94,29.99,1.5,Calm,Calm,-,0.10,Rain,Light Rain,0,2013-07-01 18:19:00
2:48 PM,66.2,64.4,94,29.99,2.5,NNW,3.5,-,0.15,Rain,Light Rain,340,2013-07-01 18:48:00
2:53 PM,66.0,64.9,96,29.98,2.5,NNW,4.6,-,0.15,Rain,Light Rain,340,2013-07-01 18:53:00
3:22 PM,66.2,64.4,94,29.99,2.0,North,3.5,-,0.04,Rain,Rain,350,2013-07-01 19:22:00
3:43 PM,66.2,64.4,94,29.99,1.8,NW,3.5,-,0.07,Rain,Light Rain,320,2013-07-01 19:43:00
3:47 PM,66.2,64.4,94,29.98,2.5,NNW,3.5,-,0.07,Rain,Light Rain,330,2013-07-01 19:47:00
3:53 PM,66.9,64.9,93,29.97,4.0,NNW,4.6,-,0.08,Rain,Light Rain,340,2013-07-01 19:53:00
4:53 PM,66.9,64.9,93,29.97,2.0,NNW,4.6,-,0.03,Rain,Rain,340,2013-07-01 20:53:00
5:00 PM,66.2,64.4,94,29.98,3.0,Calm,Calm,-,0.00,Rain,Light Rain,0,2013-07-01 21:00:00
5:53 PM,66.9,64.9,93,29.97,6.0,Variable,3.5,-,0.01,Rain,Light Rain,0,2013-07-01 21:53:00
6:53 PM,66.9,64.9,93,29.98,8.0,NNW,4.6,-,0.00,,Overcast,330,2013-07-01 22:53:00
7:14 PM,66.2,64.4,94,30.00,7.0,WNW,3.5,-,N/A,,Overcast,300,2013-07-01 23:14:00
7:43 PM,66.2,64.4,94,30.00,7.0,Calm,Calm,-,N/A,,Overcast,0,2013-07-01 23:43:00
7:53 PM,66.0,64.0,93,29.99,6.0,NW,5.8,-,N/A,,Overcast,310,2013-07-01 23:53:00
8:48 PM,66.2,64.4,94,30.02,4.0,Calm,Calm,-,N/A,,Overcast,0,2013-07-02 00:48:00
8:53 PM,66.0,64.0,93,30.00,4.0,Variable,3.5,-,N/A,,Overcast,0,2013-07-02 00:53:00
9:43 PM,64.4,64.4,100,30.03,2.5,Calm,Calm,-,0.00,Rain,Light Rain,0,2013-07-02 01:43:00
9:53 PM,64.9,64.0,97,30.02,3.0,NNW,3.5,-,0.01,Rain,Light Rain,340,2013-07-02 01:53:00
10:23 PM,64.4,62.6,94,30.03,2.5,NW,5.8,-,0.00,,Overcast,310,2013-07-02 02:23:00
10:32 PM,64.4,62.6,94,30.03,1.8,NW,6.9,-,0.00,,Overcast,310,2013-07-02 02:32:00
10:53 PM,64.0,63.0,96,30.02,1.0,NW,4.6,-,0.00,,Overcast,320,2013-07-02 02:53:00
11:17 PM,62.6,62.6,100,30.03,2.0,NW,5.8,-,N/A,,Overcast,320,2013-07-02 03:17:00
11:33 PM,62.6,62.6,100,30.04,3.0,WNW,3.5,-,N/A,,Overcast,300,2013-07-02 03:33:00
11:53 PM,63.0,62.1,97,30.03,2.5,NW,3.5,-,N/A,,Overcast,320,2013-07-02 03:53:00